Regional Weather Roundup
Issued by NWS

Home | Current Version | Previous Version | Graphics & Text | Print | Product List | Glossary On
Versions: 1 2 3 4 5 6 7 8 9 10 11 12 13 14 15 16 17 18 19 20 21 22 23 24 25 26 27 28 29 30 31 32 33 34 35 36 37 38 39 40 41 42 43 44 45 46 47 48 49 50
129
ASUS44 KLIX 192210
RWRLA
LOUISIANA WEATHER ROUNDUP
NATIONAL WEATHER SERVICE NEW ORLEANS LA
500 PM CDT TUE AUG 19 2014

NOTE: "FAIR" INDICATES FEW OR NO CLOUDS BELOW 12,000 FEET WITH NO
      SIGNIFICANT WEATHER AND/OR OBSTRUCTIONS TO VISIBILITY.
      SKY/WX - SKY CONDITION AND SIGNIFICANT WEATHER.
      TMP - AIR TEMPERATURE.    DP   - DEWPOINT TEMPERATURE.
      RH  - RELATIVE HUMIDITY.  PRES - PRESSURE.
      HX  - HEAT INDEX.         WCI  - WIND CHILL INDEX.

*  THESE STATIONS ARE NOT NWS OR FAA STATIONS AND ARE NOT UNDER
   NWS QUALITY CONTROL.

LAZ040-048-061>063-065-066-069-192300-
SOUTHEAST LOUISIANA

CITY           SKY/WX    TMP DP  RH WIND       PRES   REMARKS
N.O. AUDUBON     N/A     86  73  65 MISG        N/A
N.O. INTL ARPT CLOUDY    84  74  71 S8        29.96S
N.O. LAKEFRONT CLOUDY    87  75  67 W7        29.96R HX  96
N.O. DOWNTOWN* FAIR      90  70  51 S8        29.97R HX  95
SLIDELL        MOSUNNY   89  71  55 SW5       29.95R HX  95
BATON ROUGE    MOSUNNY   90  68  48 SW12      29.94S
BOOTHVILLE     MOSUNNY   88  75  65 SW10      29.97S HX  97
BELLE CHASSE   TSTM      76  68  76 SW5       29.96R
BOGALUSA*      FAIR      92  71  50 CALM      29.94F HX  99
GALLIANO*      NOT AVBL
NEW ROADS*     DRIZZLE   80  73  78 W3        29.95S
GONZALES*      FAIR      84  76  77 S5        29.95F
HAMMOND*       PTSUNNY   84  72  65 SW6       29.97S
HOUMA*         MOSUNNY   91  72  52 S12       29.96S HX  98
PORT FOURCHON* PTCLDY    90  73  58 SW6G13    29.98S HX  98

$$

LAZ041-044-053-054-192300-
SOUTHWEST LOUISIANA

CITY           SKY/WX    TMP DP  RH WIND       PRES   REMARKS
LAKE CHARLES   CLOUDY    76  71  85 S7        29.97S
LAFAYETTE      LGT RAIN  77  74  90 W9        29.98F
PATTERSON      PTSUNNY  N/A N/A N/A MISG        N/A
SALT POINT       N/A     92  77  61 VRB7      29.97S HX 105
NEW IBERIA     CLOUDY    80  73  79 W6        29.97F
CHENAULT AIRPK PTSUNNY   75  70  83 S5        29.98F

$$

LAZ027-028-192300-
CENTRAL LOUISIANA

CITY           SKY/WX    TMP DP  RH WIND       PRES   REMARKS
FORT POLK      CLOUDY    80  72  76 SW7       29.98R
ALEXANDRIA INT LGT RAIN  81  71  71 S7        29.93R
ALEXANDRIA     TSTM      80  74  81 S16G25    29.93S

$$

LAZ001-002-192300-
NORTHWEST LOUISIANA

CITY           SKY/WX    TMP DP  RH WIND       PRES   REMARKS
SHREVEPORT     PTSUNNY   94  69  44 VRB5      29.88F HX  99
BARKSDALE AFB  PTSUNNY   92  70  48 E3        29.88F HX  98
DTN SHREVEPORT SUNNY     92  69  47 SW8       29.88F HX  97

$$

LAZ014-016-192300-
NORTHEAST LOUISIANA

CITY           SKY/WX    TMP DP  RH WIND       PRES   REMARKS
MONROE         MOSUNNY   93  74  53 SW10      29.91S HX 103
TALLULAH       PTSUNNY   91  73  55 SW8       29.91S HX  99

$$




USA.gov is the U.S. government's official web portal to all federal, state and local government web resources and services.